Bellingham, WA

8:15 PM PDT on June 22, 2017 (GMT -0700)
Bellingham International

Weather History for KBLI - April, 2013

Change the Weather History Date:

Wednesday, April 3, 2013

  Actual Average Record
Temperature  
Mean Temperature 53 °F 47 °F  
Max Temperature 60 °F 55 °F 69 °F (1951)
Min Temperature 46 °F 39 °F 27 °F (1972)
Degree Days  
Heating Degree Days 12 18  
Month to date heating degree days 42 54  
Cooling Degree Days 0 0  
Month to date cooling degree days 0 0  
Year to date cooling degree days 0 0  
Growing Degree Days 2 (Base 50)    
Moisture  
Dew Point 46 °F    
Average Humidity 78    
Maximum Humidity 93    
Minimum Humidity 62    
Precipitation  
Precipitation 0.02 in 0.11 in 0.54 in (1993)
Month to date precipitation 0.02 0.31  
Year to date precipitation 6.50 11.22  
Sea Level Pressure  
Sea Level Pressure 30.14 in    
Wind  
Wind Speed 2 mph (West)    
Max Wind Speed 10 mph    
Max Gust Speed 14 mph    
Visibility 8 miles    
Events Rain    
T = Trace of Precipitation, MM = Missing Value Source: NWS Daily Summary

Daily Weather History Graph

Daily Weather History Graph

Search for Another Location

Airport or City:

Trip Planner

Search our weather history database for the weather conditions in past years. The results will help you decide how hot, cold, wet, or windy it might be!

Date:

Astronomy

Apr. 03, 2013 Rise Set
Actual Time 6:42 AM PDT 7:44 PM PDT
Civil Twilight 6:10 AM PDT 8:16 PM PDT
Nautical Twilight 5:32 AM PDT 8:55 PM PDT
Astronomical Twilight 4:51 AM PDT 9:36 PM PDT
Moon 3:00 AM PDT (4/3) 12:31 PM PDT (4/3)
Length of Visible Light 14h 05m
Length of Day
13h 01m
Last Quarter, 43% of the Moon is Illuminated
Apr 3
Last Quarter
Apr 10
New
Apr 18
First Quarter
Apr 25
Full
May 2
Last Quarter

Hourly Weather History & Observations

Time (PDT) Temp. Dew Point Humidity Pressure Visibility Wind Dir Wind Speed Gust Speed Precip Events Conditions
12:16 AM 48.2 °F 44.6 °F 87% 30.19 in 10.0 mi Calm Calm - N/A   Overcast
12:53 AM 48.9 °F 46.0 °F 90% 30.21 in 10.0 mi Calm Calm - 0.00 in   Overcast
1:53 AM 48.0 °F 46.0 °F 93% 30.21 in 10.0 mi Calm Calm - N/A   Overcast
2:53 AM 48.0 °F 46.0 °F 93% 30.21 in 4.0 mi Calm Calm - 0.02 in Rain Light Rain
3:53 AM 48.0 °F 46.0 °F 93% 30.20 in 7.0 mi Calm Calm - 0.00 in   Overcast
4:53 AM 48.0 °F 46.0 °F 93% 30.19 in 5.0 mi Calm Calm - N/A   Overcast
5:07 AM 48.2 °F 46.4 °F 93% 30.17 in 6.0 mi Calm Calm - N/A   Overcast
5:53 AM 48.0 °F 46.9 °F 96% 30.20 in 3.0 mi Calm Calm - N/A   Overcast
6:53 AM 48.0 °F 46.0 °F 93% 30.19 in 10.0 mi Calm Calm - N/A   Overcast
7:53 AM 48.0 °F 46.9 °F 96% 30.20 in 8.0 mi Calm Calm - N/A   Overcast
8:00 AM 48.2 °F 46.4 °F 93% 30.18 in 7.0 mi Calm Calm - N/A   Overcast
8:14 AM 48.2 °F 46.4 °F 93% 30.18 in 8.0 mi Calm Calm - N/A   Overcast
8:35 AM 48.2 °F 46.4 °F 93% 30.17 in 9.0 mi Calm Calm - N/A   Overcast
8:53 AM 48.9 °F 46.9 °F 93% 30.19 in 9.0 mi Calm Calm - N/A   Overcast
9:53 AM 51.1 °F 48.0 °F 89% 30.18 in 7.0 mi Calm Calm - N/A   Overcast
10:00 AM 51.8 °F 48.2 °F 88% 30.16 in 7.0 mi Calm Calm - N/A   Overcast
10:53 AM 53.1 °F 48.0 °F 83% 30.17 in 6.0 mi Variable 3.5 mph - N/A   Haze
11:11 AM 53.6 °F 48.2 °F 82% 30.15 in 7.0 mi Calm Calm - N/A   Overcast
11:53 AM 55.9 °F 48.0 °F 75% 30.17 in 10.0 mi WNW 3.5 mph - N/A   Mostly Cloudy
12:36 PM 55.4 °F 46.4 °F 72% 30.14 in 10.0 mi Variable 3.5 mph - N/A   Overcast
12:53 PM 57.0 °F 48.0 °F 72% 30.16 in 10.0 mi West 5.8 mph - N/A   Overcast
1:53 PM 57.0 °F 46.9 °F 69% 30.15 in 10.0 mi Variable 5.8 mph - N/A   Overcast
2:53 PM 59.0 °F 46.0 °F 62% 30.13 in 10.0 mi NW 6.9 mph - N/A   Clear
3:53 PM 57.9 °F 45.0 °F 62% 30.12 in 10.0 mi WSW 5.8 mph - N/A   Clear
4:53 PM 57.0 °F 45.0 °F 64% 30.10 in 10.0 mi West 6.9 mph - N/A   Clear
5:53 PM 55.9 °F 44.1 °F 64% 30.09 in 10.0 mi Variable 6.9 mph - N/A   Clear
6:53 PM 54.0 °F 44.1 °F 69% 30.06 in 10.0 mi Calm Calm - N/A   Clear
7:53 PM 52.0 °F 44.1 °F 74% 30.05 in 10.0 mi Calm Calm - N/A   Clear
8:53 PM 48.9 °F 44.1 °F 83% 30.04 in 10.0 mi Calm Calm - N/A   Clear
9:53 PM 46.9 °F 42.1 °F 83% 30.03 in 10.0 mi Calm Calm - N/A   Clear
10:53 PM 48.0 °F 44.1 °F 86% 30.01 in 10.0 mi Calm Calm - N/A   Clear
11:53 PM 48.0 °F 44.1 °F 86% 30.00 in 10.0 mi Calm Calm - N/A   Clear